OpenBCM V1.08-5-g2f4a (Linux)

Packet Radio Mailbox

IZ3LSV

[San Dona' di P. JN]

 Login: GUEST





  
LU9DCE > KEP      04.01.20 17:13l 246 Lines 12131 Bytes #999 (0) @ WW
BID : 6674_LU9DCE
Read: GUEST
Subj: TLE 04 01
Path: IZ3LSV<IR1UAW<IW2OHX<IR2UBX<EA2RCF<LU9DCE
Sent: 200104/1601Z 6674@LU9DCE.TOR.BA.ARG.SOAM LinBPQ6.0.19

            __    _  _  ___  ____   ___  ____    ____  ____  ____
           (  )  / )( \/ _ \(    \ / __)(  __)  (  _ \(  _ \/ ___)
           / (_/\) \/ (\__  )) D (( (__  ) _)    ) _ ( ) _ (\___ \
           \____/\____/(___/(____/ \___)(____)  (____/(____/(____/
               ESTACION DE PACKET RADIO - BUENOS AIRES (GF05OM)
                   BOLETINES INFORMATIVOS PROGRAMADOS (BIP)
                           LINUX - LU9DCE@GMX.COM
+----------------------------------------------------------------------------+
OSCAR 7
1  7530U 74089B   20003.88961368 -.00000024 +00000-0 +13076-3 0  9994
2  7530 101.7760 334.7214 0012150 324.3496 091.5686 12.53641481065240
OSCAR 11 (UoSAT 2)
1 14781U 84021B   20003.79652125  .00000042  00000-0  11295-4 0  9996
2 14781  97.5982  23.9439 0009228  34.5623 325.6190 14.83132222928279
OSCAR 19 (LUSAT)
1 20442U 90005G   20004.09436620  .00000007  00000-0  19061-4 0  9990
2 20442  98.6729 310.9694 0010694 283.6423  76.3570 14.32941933564939
EYESAT A
1 22825U 93061C   20003.69409038 -.00000015 +00000-0 +12091-4 0  9996
2 22825 098.9178 002.0211 0009116 134.7245 225.4680 14.30074748370120
ITAMSAT
1 22826U 93061D   20004.06904306 -.00000015  00000-0  12126-4 0  9996
2 22826  98.9118   2.3718 0009786 123.4319 236.7800 14.30409357370655
RADIO ROSTO
1 23439U 94085A   20004.06947178 -.00000027  00000-0  43857-3 0  9995
2 23439  64.8141 153.7025 0146044  74.1646 287.5324 11.27569361 30530
JAS 2
1 24278U 96046B   20003.83028447 -.00000012  00000-0  21272-4 0  9991
2 24278  98.5646 135.5212 0351330  83.8732 280.2311 13.53095132154737
TECHSAT 1B
1 25397U 98043D   20004.42747703 -.00000016  00000-0  12109-4 0  9995
2 25397  98.7114 307.3395 0001669 137.3289 222.8019 14.23677091116296
ISS (ZARYA)
1 25544U 98067A   20004.55435506  .00000663  00000-0  19910-4 0  9998
2 25544  51.6452  83.0976 0005225 101.1617  34.8769 15.49535291206491
PCSAT
1 26931U 01043C   20004.31445344 -.00000047  00000-0  13945-4 0  9991
2 26931  67.0494 208.5503 0006812 263.3509  96.6817 14.30563493953520
SAUDISAT 1C
1 27607U 02058C   20004.47932884 -.00000030  00000-0  16610-4 0  9990
2 27607  64.5540 158.7638 0067642 216.8391 142.8055 14.75599444916510
CUTE-1
1 27844U 03031E   20003.82375985  .00000040  00000-0  37788-4 0  9995
2 27844  98.6835  14.0504 0010015 169.1909 190.9486 14.22213996856591
CUBESAT XI 4
1 27848U 03031J   20004.01360223  .00000024  00000-0  30657-4 0  9990
2 27848  98.6908  14.7749 0009718 180.3217 179.7956 14.21804263856464
MOZHAYETS 4
1 27939U 03042A   20004.51234301  .00000043  00000-0  16232-4 0  9999
2 27939  98.0660 141.7833 0013650 150.6798 209.5174 14.66828409869839
CUBESAT XI 5
1 28895U 05043F   20004.32813246  .00000091  00000-0  26327-4 0  9993
2 28895  97.9846 145.5690 0018067  82.7882 277.5374 14.63726337756683
CUTE-1.7+APD II
1 32785U 08021C   20004.22434924  .00000175  00000-0  24471-4 0  9997
2 32785  97.5605 359.6453 0012187 327.0761  32.9696 14.88398227633367
DELFI C3
1 32789U 08021G   20003.86228805 +.00000999 +00000-0 +69963-4 0  9998
2 32789 097.4412 052.2847 0012865 157.5472 202.6322 15.07364300636864
SEEDS
1 32791U 08021J   20003.63651822 +.00000186 +00000-0 +24205-4 0  9993
2 32791 097.5331 005.2049 0011975 298.5204 061.4809 14.90944589633671
YUBELEINY
1 32953U 08025A   20004.48597772  .00000037  00000-0  19437-3 0  9999
2 32953  82.5036  20.5078 0020203  55.9248 304.3745 12.43093451527136
PRISM (HITOMI)
1 33493U 09002B   20003.81629456  .00000765  00000-0  72194-4 0  9994
2 33493  98.1316 297.4013 0013862 241.4319 118.5507 14.96858138594932
KKS-1 (KISEKI)
1 33499U 09002H   20003.84988758  .00000065  00000-0  17593-4 0  9991
2 33499  98.3323 213.7574 0008023 296.4642  63.5743 14.75493004588593
SWISSCUBE
1 35932U 09051B   20004.46469092  .00000093  00000-0  32135-4 0  9993
2 35932  98.6000 181.5097 0006553 273.2589  86.7858 14.56345450545859
BEESAT
1 35933U 09051C   20004.04373077  .00000070  00000-0  26866-4 0  9994
2 35933  98.6011 182.9081 0004770 291.0364  69.0323 14.56426951545901
ITUPSAT 1
1 35935U 09051E   20004.14810718  .00000053  00000-0  23362-4 0  9994
2 35935  98.6121 183.2362 0007083 287.5683  72.4739 14.55579113545654
XIWANG-1 (HOPE-1)
1 36122U 09072B   20004.17178111 -.00000054  00000-0 -30871-4 0  9999
2 36122 100.0813   2.2344 0006620 251.2020 108.8376 13.16352644483126
TISAT 1
1 36799U 10035E   20004.17833286  .00000244  00000-0  30658-4 0  9993
2 36799  98.1759 168.2765 0012996 147.2663 212.9362 14.91239529514499
JUGNU
1 37839U 11058B   20003.86697329  .00000288  00000-0  11823-4 0  9997
2 37839  19.9593 206.9414 0018889   2.8876 113.6046 14.12668047425459
SRMSAT
1 37841U 11058D   20004.04336468  .00000296  00000-0  17309-4 0  9999
2 37841  19.9715 266.7770 0011861 226.1348 161.9127 14.10647088424876
M-CUBED/EXP-1 PRIME
1 37855U 11061F   20004.02591911  .00000770  00000-0  46220-4 0  9993
2 37855 101.7267   7.1172 0172103 205.7354 153.5220 15.05914127446773
HORYU 2
1 38340U 12025D   20004.11865375  .00000096  00000-0  21962-4 0  9999
2 38340  98.3054  53.4324 0011081 202.8088 157.2629 14.75794316410575
STRAND 1
1 39090U 13009E   20004.12057113  .00000017  00000-0  21147-4 0  9997
2 39090  98.4678 211.5458 0010129  59.7702 300.4485 14.35112437358993
SOMP
1 39134U 13015E   20003.86566775 +.00000917 +00000-0 +50354-4 0  9993
2 39134 064.8633 094.9402 0038111 271.1677 088.5084 15.20624388370490
BEESAT 3
1 39135U 13015F   20003.75125165  .00000838  00000-0  50308-4 0  9997
2 39135  64.8663 116.4403 0044321 272.8116  86.7938 15.17828476370455
BEESAT 2
1 39136U 13015G   20004.12797725  .00000765  00000-0  47882-4 0  9999
2 39136  64.8714 119.6517 0031015 280.3929  79.3701 15.17253053370422
CUBEBUG 1
1 39153U 13018D   20004.33035146  .00000152  00000-0  26745-4 0  9991
2 39153  97.9814 106.3866 0015580 271.3317  88.6110 14.80647471361358
ZACUBE
1 39417U 13066B   20004.13173018  .00000191  00000-0  30144-4 0  9997
2 39417  97.5612  11.4061 0060372  99.8263 260.9775 14.81201138330566
TRITON 1
1 39427U 13066M   20003.84258089  .00000099  00000-0  24137-4 0  9999
2 39427  97.7029 334.2053 0112347 247.7427 111.1833 14.67925852327551
GOMX 1
1 39430U 13066Q   20004.49740733  .00000180  00000-0  41726-4 0  9991
2 39430  97.7731 313.1628 0150994 344.8664  14.8035 14.59333877325744
HUMSAT D
1 39433U 13066T   20004.09978350  .00000108  00000-0  15862-4 0  9990
2 39433  97.5295  48.1865 0030495 358.0554   2.0542 14.92341600332814
CUBEBUG 2
1 39440U 13066AA  20003.87108529  .00000149  00000-0  27613-4 0  9998
2 39440  97.6156 355.6892 0080684 157.0037 203.4819 14.75938092329350
FUNCUBE 1
1 39444U 13066AE  20004.49373755  .00000224  00000-0  33676-4 0  9996
2 39444  97.5574  13.8702 0059509  91.8320 268.9711 14.82038171329525
UWE-3
1 39446U 13066AG  20004.48167076  .00000176  00000-0  29854-4 0  9993
2 39446  97.5880   3.4434 0071136 127.3741 233.3977 14.78473117328781
SPROUT
1 39770U 14029E   20004.35864023  .00000538  00000-0  65334-4 0  9990
2 39770  97.8914 111.4744 0009383 144.4409 215.7425 14.87562277304515
UNISAT 6
1 40012U 14033C   20003.84541262  .00000125  00000-0  25922-4 0  9997
2 40012  97.7295 226.5728 0058364 173.8020 186.3925 14.74051514298024
DUCHIFAT 1
1 40021U 14033M   20003.83545731  .00000264  00000-0  32651-4 0  9992
2 40021  97.9340 294.1656 0014122 110.9102 249.3629 14.90777198301213
QB50P1
1 40025U 14033R   20003.74916821  .00000174  00000-0  24404-4 0  9995
2 40025  97.9112 288.1318 0013556 121.0623 239.1927 14.89047182300941
CHUBUSAT 1
1 40300U 14070C   20004.29527455  .00000341  00000-0  17680-4 0  9998
2 40300  97.3071  78.2326 0021193  74.4054 327.3573 15.22309023286388
NUDT-PHONESAT
1 40900U 15049B   20004.50894875  .00001529  00000-0  67045-4 0  9997
2 40900  97.4349  16.9341 0011920 196.6599 320.8523 15.23463011238072
ZDPS 2A
1 40901U 15049C   20004.56475325  .00000516  00000-0  28656-4 0  9999
2 40901  97.4617  12.5447 0012100 223.1657 253.5547 15.18006834237552
ZDPS 2B
1 40902U 15049D   20004.48316212  .00000953  00000-0  50244-4 0  9993
2 40902  97.4582   9.8085 0012025 220.9488 291.2153 15.17924877237517
XW-2A
1 40903U 15049E   20004.43794550  .00001404  00000-0  34307-4 0  9998
2 40903  97.3125  53.0991 0014429 136.1398 320.4669 15.42483390241032
KAITUO 1A
1 40904U 15049F   20004.48211670  .00000621  00000-0  36217-4 0  9993
2 40904  97.4723   8.1491 0013084 232.8117 278.9580 15.15557908237258
OBJECT G
1 40905U 15049G   20004.50219509  .00000040  00000-0  57519-5 0  9990
2 40905  97.4784   5.5196 0014258 228.3079 249.2582 15.14427644237110
XW-2C
1 40906U 15049H   20004.50117220  .00000217  00000-0  14787-4 0  9993
2 40906  97.4727   8.3494 0013511 222.1546 257.0421 15.15879564237260
XW-2D
1 40907U 15049J   20004.45965145  .00000499  00000-0  29350-4 0  9999
2 40907  97.4715   7.9957 0012886 219.1366 296.5614 15.16090129237273
LILACSAT 2
1 40908U 15049K   20004.48628731  .00000393  00000-0  25272-4 0  9992
2 40908  97.4855   6.6021 0014400 229.7788 281.5357 15.13927220237036
XW-2F
1 40910U 15049M   20004.49025682  .00000796  00000-0  42872-4 0  9994
2 40910  97.4657  10.3409 0013641 209.7494 303.0825 15.17628795237319
XW-2B
1 40911U 15049N   20004.50087168  .00000328  00000-0  20536-4 0  9998
2 40911  97.4726   8.7173 0012820 220.4948 290.9664 15.16016771237171
KAITUO 1B
1 40912U 15049P   20004.47901625  .00000897  00000-0  44770-4 0  9995
2 40912  97.4500  14.2808 0014368 189.1068 325.9539 15.19982086237659
TIANWANG 1C (TW-1C)
1 40926U 15051B   20004.50501601  .00010891  00000-0  13524-3 0  9994
2 40926  97.1099  55.6677 0006849   2.6411 104.8239 15.60149440241261
